• Join FlightAware (Why Join?)
  • Login
  • US Flag 
04:21PM EDT


 

Airport Tracker/Info


-or-


 

Live Flight TrackerFlight Track Log ✈ KAP29 ✈ 16-Jun-2013 ✈ KBOS - KSLK

Flight Track Log - Related Links

Times and Time Zones

All times are in EDT time to prevent confusion due to time zone crossing. See the KAP29 flight status page for this flight to view local times or setup timezone preferences in your user account.

Time Position Orientation Groundspeed Altitude Reporting Facility
EDT Latitude Longitude Course Direction KTS MPH feet Rate Location/Type
09:19AM 42.3500 -71.0167 304° West 116 133 500  Level KA90
09:20AM 42.3667 -71.0500 304° West 105 121 900 540 Climbing KA90
09:21AM 42.3667 -71.0833 270° West 111 128 1,500 420 Climbing KA90
09:22AM 42.3833 -71.1167 304° West 113 130 1,800 420 Climbing KA90
09:23AM 42.4000 -71.1500 304° West 129 148 2,400 420 Climbing KA90
09:24AM 42.4500 -71.1500 360° North 132 152 2,800 420 Climbing KA90
09:25AM 42.4833 -71.1667 340° North 134 154 3,300 420 Climbing KA90
09:26AM 42.5167 -71.1833 340° North 133 153 3,700 360 Climbing KA90
09:27AM 42.5500 -71.2000 340° North 133 153 4,000 360 Climbing KA90
09:28AM 42.5833 -71.2167 340° North 136 157 4,500 480 Climbing KA90
09:29AM 42.6167 -71.2333 340° North 127 146 5,000 480 Climbing KA90
09:30AM 42.6500 -71.2500 340° North 130 150 5,500 360 Climbing KA90
09:31AM 42.6833 -71.2667 340° North 133 153 5,800 420 Climbing KA90
09:32AM 42.7167 -71.2833 340° North 131 151 6,400 420 Climbing KA90
09:33AM 42.7500 -71.3000 340° North 128 147 6,700 300 Climbing KA90
09:34AM 42.7833 -71.3333 324° Northwest 133 153 7,100 420 Climbing KA90
09:36AM 42.8500 -71.3667 340° North 134 154 8,000 300 Climbing KA90
09:37AM 42.8833 -71.3833 340° North 139 160 8,100  Climbing KA90
09:39AM 42.9333 -71.4833 304° West 139 160 8,000  Descending KA90
09:40AM 42.9667 -71.5167 324° Northwest 144 166 8,100  Climbing KA90
09:41AM 43.0000 -71.5500 324° Northwest 141 162 8,000  Descending KA90
09:42AM 43.0167 -71.5833 304° West 140 161 8,100  Climbing KA90
09:43AM 43.0500 -71.6333 312° West 141 162 8,100  Level KA90
09:44AM 43.0833 -71.6667 324° Northwest 139 160 8,100  Level KA90
09:44AM 43.0814 -71.6811 260° West 141 162 8,100  Level Boston Center
09:45AM 43.1067 -71.7178 313° West 146 168 8,100 -60 Level Boston Center
09:46AM 43.1342 -71.7572 314° West 141 162 8,000  Descending Boston Center
09:47AM 43.1633 -71.7939 317° Northwest 141 162 8,100  Climbing Boston Center
09:48AM 43.1928 -71.8336 315° West 146 168 8,100  Level Boston Center
09:49AM 43.2181 -71.8731 311° West 146 168 8,100  Level Boston Center
09:50AM 43.2433 -71.9128 311° West 140 161 8,100  Level Boston Center
09:51AM 43.2683 -71.9497 313° West 140 161 8,100  Level Boston Center
09:52AM 43.2978 -71.9978 310° West 140 161 8,100  Level Boston Center
09:53AM 43.3228 -72.0319 315° West 140 161 8,100  Level Boston Center
09:54AM 43.3544 -72.0803 312° West 147 169 8,100  Level Boston Center
09:55AM 43.3794 -72.1144 315° West 147 169 8,100  Level Boston Center
09:56AM 43.4128 -72.1600 315° West 147 169 8,100  Level Boston Center
09:57AM 43.4400 -72.2056 309° West 147 169 8,100  Level Boston Center
09:58AM 43.4672 -72.2428 315° West 147 169 8,100  Level Boston Center
09:59AM 43.4944 -72.2856 311° West 147 169 8,100  Level Boston Center
10:00AM 43.5217 -72.3256 313° West 147 169 8,100  Level Boston Center
10:01AM 43.5486 -72.3656 313° West 142 163 8,100  Level Boston Center
10:02AM 43.5778 -72.4086 313° West 142 163 8,100  Level Boston Center
10:03AM 43.6050 -72.4458 315° West 142 163 8,100  Level Boston Center
10:04AM 43.6342 -72.4917 311° West 149 171 8,100  Level Boston Center
10:05AM 43.6611 -72.5319 313° West 149 171 8,100  Level Boston Center
10:06AM 43.6903 -72.5781 311° West 149 171 8,100  Level Boston Center
10:07AM 43.7172 -72.6181 313° West 149 171 8,100 -60 Level Boston Center
10:08AM 43.7486 -72.6586 317° Northwest 149 171 8,000 -60 Descending Boston Center
10:09AM 43.7756 -72.7075 307° West 149 171 8,000  Level Boston Center
10:10AM 43.8006 -72.7422 315° West 142 163 8,000  Level Boston Center
10:11AM 43.8253 -72.7825 310° West 137 158 8,000  Level Boston Center
10:12AM 43.8564 -72.8289 313° West 142 163 8,000  Level Boston Center
10:13AM 43.8814 -72.8722 309° West 142 163 8,000  Level Boston Center
10:14AM 43.9000 -72.9183 299° West 137 158 8,000  Level Boston Center
10:15AM 43.9183 -72.9647 299° West 137 158 8,000  Level Boston Center
10:16AM 43.9328 -73.0022 298° West 137 158 8,000  Level Boston Center
10:17AM 43.9533 -73.0572 297° West 137 158 8,000  Level Boston Center
10:18AM 43.9719 -73.1064 298° West 137 158 8,000  Level Boston Center
10:19AM 43.9903 -73.1528 299° West 137 158 8,000  Level Boston Center
10:20AM 44.0047 -73.1906 298° West 137 158 8,000  Level Boston Center
10:21AM 44.0250 -73.2456 297° West 137 158 8,000  Level Boston Center
10:22AM 44.0436 -73.2922 299° West 137 158 8,000  Level Boston Center
10:23AM 44.0619 -73.3386 299° West 137 158 8,000  Level Boston Center
10:24AM 44.0783 -73.3822 298° West 137 158 8,000  Level Boston Center
10:25AM 44.0967 -73.4286 299° West 137 158 8,000  Level Boston Center
10:26AM 44.1150 -73.4753 299° West 137 158 8,100  Climbing Boston Center
10:27AM 44.1311 -73.5247 294° West 137 158 8,100 -60 Level Boston Center
10:28AM 44.1494 -73.5742 297° West 137 158 8,000 -180 Descending Boston Center
10:29AM 44.1697 -73.6267 298° West 137 158 7,800 -240 Descending Boston Center
10:30AM 44.1881 -73.6792 296° West 148 170 7,600 -180 Descending Boston Center
10:32AM 44.2122 -73.7464 297° West 153 176 7,500  Descending Boston Center
10:33AM 44.2283 -73.7872 299° West 147 169 7,600  Climbing Boston Center
10:34AM 44.2467 -73.8369 297° West 147 169 7,600  Level Boston Center
10:35AM 44.2647 -73.8808 300° West 142 163 7,600  Level Boston Center
10:36AM 44.2850 -73.9336 298° West 132 152 7,600  Level Boston Center
10:37AM 44.3011 -73.9833 294° West 138 159 7,600  Level Boston Center
10:38AM 44.3192 -74.0272 300° West 138 159 7,600  Level Boston Center
10:39AM 44.3372 -74.0742 298° West 138 159 7,600  Level Boston Center